Regional Weather Roundup
Issued by NWS

Home | Current Version | Previous Version | Text Only | Print | Product List | Glossary On
Versions: 1 2 3 4 5 6 7 8 9 10 11 12 13 14 15 16 17 18 19 20 21 22 23 24 25 26 27 28 29 30 31 32 33 34 35 36 37 38 39 40 41 42 43 44 45 46 47 48 49 50
000
ASUS44 KFWD 250215
RWRTX
NORTH TEXAS HOURLY WEATHER ROUNDUP
NATIONAL WEATHER SERVICE FORT WORTH TX
900 PM CDT SUN JUL 24 2016

NOTE: "FAIR" INDICATES FEW OR NO CLOUDS BELOW 12,000 FEET WITH NO
SIGNIFICANT WEATHER AND/OR OBSTRUCTIONS TO VISIBILITY.

TXZ118-119-250300-
DALLAS/FORT WORTH METROPLEX

CITY           SKY/WX    TMP DP  RH WIND       PRES   REMARKS
DFW AIRPORT    PTCLDY    92  69  47 SE9       29.89R HX  97
DALLAS LOVE    PTCLDY    94  69  44 SE13      29.90R HX  99
FTW MEACHAM    CLEAR     95  67  39 SE10      29.89R HX  99
DAL-EXECUTIVE  CLEAR     92  67  43 SE8       29.90R HX  95
FTW-ALLIANCE   PTCLDY    90  68  48 SE6       29.90R HX  94
FTW-NAS-JRB    CLEAR     95  64  35 SE9       29.90R HX  97
FTW-SPINKS     CLEAR     87  71  59 SE3       29.92R HX  92
ARLINGTON      CLEAR     91  69  48 SE7       29.90R HX  96
GRAND PRAIRIE  CLEAR     92  67  43 SE6       29.91R HX  96
MESQUITE       CLOUDY    89  66  47 SE6       29.91R HX  91
LANCASTER      PTCLDY    91  69  49 SE3       29.92R HX  95
$$

TXZ091>094-102>105-117-120-121-131>134-250300-
NORTH CENTRAL TEXAS

CITY           SKY/WX    TMP DP  RH WIND       PRES   REMARKS
SHRMAN/DENISON PTCLDY    92  70  47 S7        29.93R HX  97
GAINESVILLE    CLEAR     88  71  57 SE3       29.94R HX  94
BOWIE          CLEAR     87  73  61 CALM      29.93R HX  94
BRIDGEPORT     CLEAR     89  72  56 S3        29.92R HX  95
DECATUR        CLEAR     88  69  53 E6        29.93R HX  92
DENTON         CLEAR     91  70  49 SE7       29.90R HX  96
MCKINNEY       CLOUDY    90  74  59 SE6       29.91R HX  99
GREENVILLE     CLEAR     88  70  55 SE7       29.92R HX  92
ROCKWALL       HAZE      90  71  53 SE8       29.90R VSB 1/2 HX  96
TERRELL        CLOUDY    89  67  47 E7        29.92R HX  92
WAXAHACHIE     CLEAR     89  71  55 CALM      29.92R HX  95
CLEBURNE       CLEAR     91  70  49 E8        29.93R HX  97
GRANBURY       CLEAR     94  68  41 E8        29.91R HX  98
$$

TXZ083>090-098>101-113>116-127>130-139>142-154-155-250300-
WESTERN NORTH TEXAS

CITY           SKY/WX    TMP DP  RH WIND       PRES   REMARKS
WICHITA FALLS  CLEAR     89  70  53 SE9       29.90R HX  94
WF-KICKAPOO    CLEAR     91  69  47 SE6       29.92R HX  96
VERNON         CLEAR     94  58  29 SE10      29.90S HX  93
ABILENE        CLEAR     92  63  38 E12       29.93R HX  93
ABILENE-DYESS  CLEAR     93  65  40 E10       29.91R HX  95
CISCO          CLEAR     91  63  38 SE8       29.94S HX  92
BRECKENRIDGE   CLEAR     92  62  36 SE7       29.91R HX  93
GRAHAM         CLEAR     91  67  45 E6        29.89S HX  93
MINERAL WELLS  CLEAR     90  69  50 E7        29.90R HX  94
STEPHENVILLE   CLEAR     90  64  41 E5        29.96R HX  91
COMANCHE       CLEAR     89  63  41 SE7       29.93R HX  90
BROWNWOOD      CLEAR     90  61  37 E7        29.92R
COLEMAN        CLEAR     91  59  33 E8        29.93R HX  90
$$

TXZ143>147-156>162-174-175-250300-
CENTRAL TEXAS

CITY           SKY/WX    TMP DP  RH WIND       PRES   REMARKS
WACO           CLEAR     91  67  44 SE7       29.89R HX  94
WACO-MCGREGOR  CLEAR     92  69  47 SE7       29.90R HX  97
HILLSBORO      CLEAR     89  70  53 E8        29.91R HX  94
CORSICANA      CLEAR     88  74  63 E6        29.92R HX  96
MEXIA          CLEAR     89  71  55 CALM      29.90R HX  94
HEARNE         PTCLDY    90  70  52 E6        29.90R HX  96
CAMERON        CLEAR     91  71  50 SE3       29.89R HX  97
TEMPLE         CLEAR     92  70  48 SE8       29.91R HX  97
KILLEEN        PTCLDY    91  67  44 SE9       29.91R HX  94
KILLEEN-SKYLRK CLEAR     92  70  48 SE6       29.91R HX  97
FORT HOOD      CLEAR     91  68  45 SE8       29.89R HX  95
GATESVILLE     CLEAR     90  68  48 CALM      29.93R HX  93
HAMILTON       CLEAR     91  63  40 SE7       29.94R HX  91
LAMPASAS       CLEAR     91  71  51 SE5       29.92R HX  97
$$

TXZ095>097-106>112-122>126-135>138-148>153-164>167-250300-
EAST TEXAS

CITY           SKY/WX    TMP DP  RH WIND       PRES   REMARKS
PARIS          CLEAR     90  66  45 SE6       29.94R HX  92
SULPHUR SPRNGS CLEAR     90  72  55 SE6       29.95R HX  96
MOUNT PLEASANT PTCLDY    83  70  62 SE13      29.96R
GILMER         CLOUDY    82  71  69 SE13G20   29.96R
MINEOLA        CLEAR     88  73  62 SE3       29.93R HX  96
TYLER          PTCLDY    84  73  69 E13       29.94R HX  90
LONGVIEW       CLOUDY    80  72  76 SE12      29.95R
MARSHALL       CLOUDY    75  71  86 CALM      29.98R
ATHENS         CLOUDY    84  72  65 CALM      29.91R
PALESTINE      CLOUDY    89  74  60 NE5       29.92R HX  97
JACKSONVILLE   PTCLDY    83  72  67 E9G18     29.97R
HENDERSON      CLOUDY    80  71  75 E6        29.97S
CENTER         RAIN      77  76  95 SE7       29.99R
NACOGDOCHES    CLOUDY   N/A N/A N/A E17G24    29.96R
LUFKIN         PTCLDY    85  74  69 E14       29.95R THUNDER HX  92
$$

SUPPLEMENTAL OBSERVATIONS (CENTRAL)

CITY           SKY/WX    TMP DP  RH WIND       PRES   REMARKS
DENISON DAM      N/A     91  75  59 S2          N/A  HX 102
CADDO GRASSLND   N/A     91  70  49 SE3         N/A  HX  97
PAT MAYSE LAKE   N/A     91  72  52 E5          N/A  HX  98
GREENVILLE       N/A     90  70  51 SE6         N/A  HX  95
LAKE LIMESTONE   N/A     90  70  51 E3          N/A  HX  95
MCGREGOR         N/A     90  66  45 SE5         N/A  HX  92
$$

SUPPLEMENTAL OBSERVATIONS (WEST)

CITY           SKY/WX    TMP DP  RH WIND       PRES   REMARKS
MILLERS CREEK    N/A     93  64  38 SE8         N/A  HX  95
LBJ GRASSLAND    N/A     88  70  55 E2          N/A  HX  92
COMANCHE         N/A    N/A N/A N/A SE8         N/A
HAMBY            N/A     90  63  40 SE6         N/A  HX  90
IVIE RESERVOIR   N/A     93  59  31 E9          N/A  HX  92
COLORADO BEND    N/A     91  63  38 S8          N/A  HX  92
$$

SUPPLEMENTAL OBSERVATIONS (EAST)

CITY           SKY/WX    TMP DP  RH WIND       PRES   REMARKS
CLARKSVILLE      N/A     90  73  58 SE7         N/A  HX  98
TEXARKANA        N/A     79  73  83 CALM        N/A
LINDEN           N/A     79  70  73 SE1G9       N/A
GILMER           N/A     82  70  65 SE9         N/A
HENDERSON        N/A     81  72  74 E6G20       N/A
LUFKIN           N/A     79  70  73 MISG        N/A
N SABINE NF      N/A     75  72  88 MISG        N/A
S SABINE NF      N/A     82  73  74 NW3         N/A
$$

SUPPLEMENTAL OBSERVATIONS ARE A COLLECTION OF AUTOMATED INSTRUMENTS
THAT ARE MAINTAINED BY A VARIETY OF FEDERAL AND STATE AGENCIES.
CERTAIN ELEMENTS...SUCH AS HUMIDITY VALUES AND SUSTAINED WIND
SPEEDS...MAY BE APPROXIMATED.




USA.gov is the U.S. government's official web portal to all federal, state and local government web resources and services.